ファン・ネス彗星

327P/Van Ness (2002)

English version
Home page
Updated on August 15, 2015

---------------------------------------------------------------------

・ プロフィール

符号 327P/2002 Q1
発見日 2002年8月17日
発見光度 16.9等
発見者 M. E. Van Ness (Lowell Observatory-LONEOS)

・ 軌道要素

Epoch 2002 July 25.0 TT = JDT 2452480.5
T 2002 July 15.98534 TT                                 MPCW
q   1.5213080            (2000.0)            P               Q
n   0.14827540     Peri.  184.74693     +0.99814126     +0.00015883
a   3.5352759      Node   174.10090     -0.01363915     +0.97521336
e   0.5696777      Incl.   36.36731     -0.05939693     -0.22126654
P   6.65
From 55 observations 2002 Aug. 17-2015 Aug. 10, mean residual 0".6.

・ 星図

・ 光度変化

        m1 = 14.5 + 5 logΔ + 10.0 log r

---------------------------------------------------------------------

軌道要素はM.P.E.C. 2015-P24に掲載されたものです。
星図は StellaNavigator Ver.2.0 for Windows (アストロアーツ 編著 / アスキー出版局刊) で作成したものです。
光度グラフはComet for Windowsで作成したものです。

---------------------------------------------------------------------

Copyright(C) Seiichi Yoshida (comet@aerith.net). All rights reserved.